Weather History for Langdon, ND

Change the Weather History Date:

Thursday, April 4, 2013

  Actual Average (KDVL) Record (KDVL)
Temperature  
Mean Temperature 17 °F -  
Max Temperature 26 °F 45 °F 71 °F (1991)
Min Temperature 6 °F 23 °F 0 °F (2002)
Degree Days  
Heating Degree Days 48    
Moisture  
Dew Point 17 °F    
Average Humidity 84    
Maximum Humidity 100    
Minimum Humidity 69    
Precipitation  
Precipitation 0.00 in - - ()
Sea Level Pressure  
Sea Level Pressure 30.17 in    
Wind  
Wind Speed 13 mph (North)    
Max Wind Speed 22 mph    
Max Gust Speed 22 mph    
Visibility 10 miles    
Events      
Averages and records for this station are not official NWS values.
T = Trace of Precipitation, MM = Missing Value Source: NWS Daily Summary

Daily Weather History Graph

Daily Weather History Graph

Search for Another Location

Airport:

Trip Planner

Search our weather history database for the weather conditions in past years. The results will help you decide how hot, cold, wet, or windy it might be!

Date:

Astronomy

Apr. 04, 2013 Rise Set
Actual Time 7:04 AM CDT 8:09 PM CDT
Civil Twilight 6:32 AM CDT 8:41 PM CDT
Nautical Twilight 5:53 AM CDT 9:20 PM CDT
Astronomical Twilight 5:12 AM CDT 10:01 PM CDT
Moon 4:00 AM CDT (4/4) 2:02 PM CDT (4/4)
Length of Visible Light 14h 09m
Length of Day
13h 04m
Waning Crescent, 33% of the Moon is Illuminated
Apr 4
Waning Crescent
Apr 10
New
Apr 18
First Quarter
Apr 25
Full
May 2
Last Quarter

Hourly Weather History & Observations

Time (CDT) Temp. Windchill Dew Point Humidity Pressure Visibility Wind Dir Wind Speed Gust Speed Precip Events Conditions
12:15 AM 26.6 °F 13.4 °F 24.8 °F 93% 30.00 in 10.0 mi NW 18.4 mph - N/A   Clear
12:35 AM 26.6 °F 12.7 °F 24.8 °F 93% 30.01 in 10.0 mi NW 20.7 mph - N/A   Clear
12:55 AM 26.6 °F 13.1 °F 24.8 °F 93% 30.01 in 10.0 mi NW 19.6 mph - N/A   Clear
1:15 AM 26.6 °F 13.8 °F 23.0 °F 86% 30.01 in 10.0 mi NW 17.3 mph - N/A   Clear
1:35 AM 24.8 °F 11.5 °F 23.0 °F 93% 30.02 in 10.0 mi NW 17.3 mph - N/A   Clear
1:55 AM 26.6 °F 12.4 °F 23.0 °F 86% 30.02 in 10.0 mi NW 21.9 mph - N/A   Clear
2:15 AM 26.6 °F 14.3 °F 23.0 °F 86% 30.03 in 10.0 mi NW 16.1 mph - N/A   Clear
2:35 AM 24.8 °F 11.1 °F 23.0 °F 93% 30.03 in 10.0 mi NW 18.4 mph - N/A   Clear
2:55 AM 24.8 °F 12.4 °F 23.0 °F 93% 30.04 in 10.0 mi NNW 15.0 mph - N/A   Clear
3:15 AM 23.0 °F 10.1 °F 21.2 °F 93% 30.05 in 10.0 mi NNW 15.0 mph - N/A   Clear
3:35 AM 23.0 °F 11.7 °F 19.4 °F 86% 30.05 in 10.0 mi NNW 11.5 mph - N/A   Clear
3:55 AM 21.2 °F 8.9 °F 19.4 °F 93% 30.06 in 10.0 mi NNW 12.7 mph - N/A   Clear
4:15 AM 23.0 °F 10.6 °F 19.4 °F 86% 30.07 in 10.0 mi NNW 13.8 mph - N/A   Clear
4:35 AM 21.2 °F 8.9 °F 19.4 °F 93% 30.07 in 10.0 mi NNW 12.7 mph - N/A   Clear
4:55 AM 19.4 °F 8.6 °F 19.4 °F 100% 30.09 in 10.0 mi NW 9.2 mph - N/A   Clear
5:15 AM 19.4 °F 9.5 °F 17.6 °F 93% 30.09 in 10.0 mi NW 8.1 mph - N/A   Clear
5:35 AM 17.6 °F 8.2 °F 15.8 °F 93% 30.10 in 10.0 mi NNW 6.9 mph - N/A   Clear
5:55 AM 17.6 °F 6.4 °F 15.8 °F 93% 30.10 in 10.0 mi NNW 9.2 mph - N/A   Clear
6:15 AM 17.6 °F 6.4 °F 15.8 °F 93% 30.11 in 10.0 mi NNW 9.2 mph - N/A   Clear
6:35 AM 15.8 °F 4.2 °F 15.8 °F 100% 30.12 in 10.0 mi NW 9.2 mph - N/A   Clear
6:55 AM 15.8 °F 4.2 °F 15.8 °F 100% 30.13 in 10.0 mi NW 9.2 mph - N/A   Clear
7:15 AM 15.8 °F 5.1 °F 15.8 °F 100% 30.14 in 10.0 mi NNW 8.1 mph - N/A   Clear
7:35 AM 17.6 °F 7.3 °F 15.8 °F 93% 30.15 in 10.0 mi NNW 8.1 mph - N/A   Clear
7:55 AM 15.8 °F 5.1 °F 14.0 °F 93% 30.16 in 10.0 mi NW 8.1 mph - N/A   Clear
8:15 AM 15.8 °F 4.2 °F 15.8 °F 100% 30.17 in 10.0 mi NW 9.2 mph - N/A   Mostly Cloudy
8:35 AM 17.6 °F 7.3 °F 15.8 °F 93% 30.18 in 10.0 mi NW 8.1 mph - N/A   Mostly Cloudy
8:55 AM 17.6 °F 7.3 °F 15.8 °F 93% 30.19 in 10.0 mi NNW 8.1 mph - N/A   Mostly Cloudy
9:15 AM 19.4 °F 7.9 °F 17.6 °F 93% 30.20 in 10.0 mi NNW 10.4 mph - N/A   Mostly Cloudy
9:35 AM 19.4 °F 9.5 °F 17.6 °F 93% 30.20 in 10.0 mi NNW 8.1 mph - N/A   Mostly Cloudy
9:55 AM 21.2 °F 10.9 °F 19.4 °F 93% 30.20 in 10.0 mi North 9.2 mph - N/A   Mostly Cloudy
10:15 AM 23.0 °F 10.6 °F 19.4 °F 86% 30.20 in 10.0 mi North 13.8 mph - N/A   Mostly Cloudy
10:35 AM 23.0 °F 10.1 °F 19.4 °F 86% 30.21 in 10.0 mi North 15.0 mph - N/A   Mostly Cloudy
10:55 AM 23.0 °F 8.7 °F 17.6 °F 80% 30.21 in 10.0 mi North 18.4 mph - N/A   Mostly Cloudy
11:35 AM 24.8 °F 12.4 °F 17.6 °F 74% 30.23 in 10.0 mi North 15.0 mph - N/A   Overcast
11:55 AM 24.8 °F 12.9 °F 17.6 °F 74% 30.23 in 10.0 mi NNW 13.8 mph - N/A   Scattered Clouds
12:15 PM 24.8 °F 12.9 °F 17.6 °F 74% 30.24 in 10.0 mi North 13.8 mph - N/A   Clear
12:35 PM 24.8 °F 13.4 °F 17.6 °F 74% 30.24 in 10.0 mi North 12.7 mph - N/A   Clear
12:55 PM 24.8 °F 12.9 °F 17.6 °F 74% 30.24 in 10.0 mi North 13.8 mph - N/A   Clear
1:15 PM 24.8 °F 12.9 °F 17.6 °F 74% 30.24 in 10.0 mi North 13.8 mph - N/A   Clear
1:35 PM 24.8 °F 13.4 °F 17.6 °F 74% 30.24 in 10.0 mi North 12.7 mph - N/A   Clear
1:55 PM 24.8 °F 13.4 °F 17.6 °F 74% 30.24 in 10.0 mi North 12.7 mph - N/A   Clear
2:15 PM 24.8 °F 14.0 °F 17.6 °F 74% 30.24 in 10.0 mi North 11.5 mph - N/A   Clear
2:35 PM 24.8 °F 14.0 °F 17.6 °F 74% 30.24 in 10.0 mi North 11.5 mph - N/A   Clear
2:55 PM 24.8 °F 16.9 °F 17.6 °F 74% 30.24 in 10.0 mi North 6.9 mph - N/A   Clear
3:15 PM 24.8 °F 15.3 °F 17.6 °F 74% 30.23 in 10.0 mi North 9.2 mph 21.9 mph N/A   Clear
3:35 PM 24.8 °F 14.6 °F 17.6 °F 74% 30.23 in 10.0 mi North 10.4 mph - N/A   Partly Cloudy
3:55 PM 24.8 °F 15.3 °F 17.6 °F 74% 30.22 in 10.0 mi North 9.2 mph - N/A   Partly Cloudy
4:15 PM 24.8 °F 14.6 °F 17.6 °F 74% 30.23 in 10.0 mi North 10.4 mph - N/A   Clear
4:35 PM 24.8 °F 15.3 °F 17.6 °F 74% 30.23 in 10.0 mi North 9.2 mph - N/A   Partly Cloudy
4:55 PM 24.8 °F 15.3 °F 17.6 °F 74% 30.24 in 10.0 mi North 9.2 mph - N/A   Clear
5:15 PM 24.8 °F 16.9 °F 17.6 °F 74% 30.24 in 10.0 mi NNW 6.9 mph - N/A   Clear
5:35 PM 24.8 °F 15.3 °F 17.6 °F 74% 30.24 in 10.0 mi North 9.2 mph - N/A   Clear
5:55 PM 24.8 °F 16.1 °F 17.6 °F 74% 30.24 in 10.0 mi NNW 8.1 mph - N/A   Clear
6:15 PM 24.8 °F 15.3 °F 17.6 °F 74% 30.24 in 10.0 mi North 9.2 mph - N/A   Clear
6:35 PM 24.8 °F 16.9 °F 15.8 °F 69% 30.24 in 10.0 mi North 6.9 mph - N/A   Clear
6:55 PM 23.0 °F 14.7 °F 15.8 °F 74% 30.25 in 10.0 mi NNW 6.9 mph - N/A   Clear
7:15 PM 23.0 °F 13.9 °F 15.8 °F 74% 30.25 in 10.0 mi North 8.1 mph - N/A   Clear
7:35 PM 23.0 °F 15.8 °F 15.8 °F 74% 30.24 in 10.0 mi NNE 5.8 mph - N/A   Clear
7:55 PM 21.2 °F 11.7 °F 15.8 °F 80% 30.23 in 10.0 mi NE 8.1 mph - N/A   Clear
8:15 PM 19.4 °F 10.4 °F 14.0 °F 80% 30.23 in 10.0 mi ENE 6.9 mph - N/A   Clear
8:35 PM 17.6 °F 10.7 °F 14.0 °F 86% 30.23 in 10.0 mi ENE 4.6 mph - N/A   Clear
8:55 PM 17.6 °F 9.3 °F 12.2 °F 79% 30.23 in 10.0 mi ENE 5.8 mph - N/A   Clear
9:15 PM 17.6 °F 10.7 °F 12.2 °F 79% 30.23 in 10.0 mi ENE 4.6 mph - N/A   Clear
9:35 PM 14.0 °F - 10.4 °F 86% 30.24 in 10.0 mi Calm Calm - N/A   Clear
9:55 PM 14.0 °F - 10.4 °F 86% 30.24 in 10.0 mi Calm Calm - N/A   Clear
10:15 PM 14.0 °F 8.2 °F 10.4 °F 86% 30.24 in 10.0 mi ESE 3.5 mph - N/A   Clear
10:35 PM 10.4 °F 2.2 °F 6.8 °F 85% 30.24 in 10.0 mi ESE 4.6 mph - N/A   Clear
10:55 PM 8.6 °F 0.1 °F 6.8 °F 92% 30.23 in 10.0 mi ESE 4.6 mph - N/A   Clear
11:15 PM 8.6 °F 0.1 °F 5.0 °F 85% 30.23 in 10.0 mi ESE 4.6 mph - N/A   Clear
11:35 PM 8.6 °F -1.3 °F 6.8 °F 92% 30.23 in 10.0 mi ESE 5.8 mph - N/A   Clear
11:55 PM 6.8 °F -6.9 °F 5.0 °F 92% 30.22 in 10.0 mi East 9.2 mph - N/A   Clear